Temperature
10 10 9 9 9 8 8 8 7 6 6 5 5 5 5 4 4 4 4 4 4 4 4 4 4 4 3 3 3 2 2 1 1 1 0 -0 -0 -1
9 9 9 9 8 8 8 7 6 6 5 5 5 5 4 4 4 4 3 3 3 3 3 3 3 2 2 2 2 1 1 1 0 -0 -1 -1 -2 -2
8 8 8 8 8 8 7 7 6 5 4 4 4 3 3 3 3 3 2 3 3 2 2 2 1 1 1 1 0 0 -0 -0 -1 -1 -2 -2 -2 -2
8 8 7 7 7 7 6 6 5 4 3 3 3 3 2 2 2 2 1 1 1 1 1 0 0 -0 -0 -0 -1 -1 -1 -1 -2 -2 -2 -2 -2 -2
7 7 7 6 6 5 5 4 3 2 2 2 3 2 2 1 1 1 0 0 -0 -0 -0 -1 -1 -1 -2 -2 -2 -2 -2 -2 -3 -3 -3 -3 -2 -2
6 5 5 4 4 3 2 2 2 2 2 2 2 1 1 0 -0 -0 -1 -1 -1 -1 -2 -2 -2 -3 -3 -3 -3 -3 -3 -3 -3 -3 -3 -3 -3 -3
4 3 3 2 2 1 1 1 1 1 1 1 1 0 -0 -1 -1 -2 -2 -3 -3 -3 -3 -3 -3 -3 -3 -3 -3 -3 -3 -3 -4 -4 -4 -4 -4 -3
2 1 1 0 0 0 0 0 0 0 -0 -1 -1 -1 -2 -3 -3 -4 -5 -5 -4 -4 -5 -4 -4 -4 -3 -3 -3 -3 -3 -4 -4 -4 -4 -4 -4 -4
0 0 -0 -0 -0 -0 -1 -1 -1 -1 -2 -2 -3 -3 -4 -5 -5 -6 -6 -6 -5 -5 -6 -4 -4 -4 -3 -3 -3 -3 -3 -4 -4 -4 -4 -4 -4 -4
-0 -0 -1 -1 -1 -1 -1 -2 -2 -3 -3 -4 -4 -4 -5 -6 -6 -6 -6 -6 -6 -5 -7 -6 -4 -4 -3 -3 -3 -3 -3 -3 -4 -4 -4 -4 -4 -4
-1 -2 -2 -2 -2 -3 -3 -3 -4 -4 -5 -5 -6 -6 -6 -6 -7 -7 -7 -7 -6 -5 -6 -6 -5 -5 -3 -2 -2 -3 -3 -3 -4 -4 -4 -4 -4 -5
-2 -3 -3 -3 -4 -4 -4 -5 -5 -6 -6 -7 -7 -7 -7 -7 -7 -7 -7 -7 -7 -7 -6 -7 -6 -6 -6 -3 -2 -3 -3 -3 -3 -4 -4 -4 -5 -6
-4 -4 -4 -5 -5 -5 -6 -6 -7 -7 -7 -7 -7 -7 -7 -7 -7 -7 -7 -7 -8 -7 -7 -7 -7 -7 -7 -6 -3 -2 -3 -3 -3 -3 -4 -4 -5 -6
-5 -5 -6 -6 -6 -6 -6 -7 -7 -7 -7 -7 -7 -7 -7 -7 -7 -7 -7 -7 -7 -7 -7 -7 -7 -7 -7 -8 -6 -3 -3 -3 -4 -4 -4 -5 -5 -6
-6 -6 -7 -7 -7 -7 -7 -7 -7 -7 -7 -7 -7 -7 -7 -7 -7 -7 -7 -7 -7 -6 -6 -7 -7 -7 -7 -8 -7 -5 -4 -4 -4 -4 -5 -6 -6 -6
-6 -7 -7 -7 -7 -7 -7 -7 -7 -7 -7 -7 -7 -7 -7 -7 -7 -7 -7 -7 -7 -6 -6 -6 -7 -7 -8 -7 -8 -7 -5 -5 -5 -5 -6 -6 -6 -6
-7 -7 -7 -8 -8 -8 -8 -8 -8 -8 -8 -8 -8 -8 -7 -7 -7 -7 -8 -8 -8 -7 -6 -6 -7 -7 -8 -8 -8 -6 -6 -6 -6 -6 -7 -7 -6 -6
-8 -7 -8 -8 -8 -8 -8 -8 -8 -8 -8 -8 -8 -8 -8 -8 -8 -7 -8 -8 -8 -7 -7 -7 -7 -8 -8 -8 -7 -7 -6 -6 -7 -7 -8 -8 -8 -6
-8 -8 -8 -8 -8 -8 -8 -8 -8 -8 -8 -8 -8 -8 -8 -8 -8 -8 -8 -8 -8 -8 -8 -7 -8 -9 -10 -10 -8 -7 -8 -8 -8 -8 -8 -8 -8 -7
-8 -9 -9 -9 -9 -9 -9 -8 -8 -8 -8 -8 -8 -8 -8 -9 -9 -8 -8 -9 -9 -8 -8 -8 -8 -9 -10 -10 -10 -8 -7 -8 -8 -8 -8 -8 -8 -7
-9 -9 -9 -9 -9 -9 -9 -9 -8 -8 -8 -8 -8 -8 -9 -9 -9 -9 -9 -9 -9 -9 -9 -8 -8 -9 -9 -10 -10 -8 -7 -7 -8 -8 -8 -8 -8 -8
-9 -9 -9 -9 -9 -9 -9 -8 -8 -8 -8 -8 -8 -8 -9 -9 -9 -9 -9 -9 -9 -9 -9 -8 -8 -8 -9 -10 -10 -9 -8 -7 -7 -8 -8 -8 -8 -8
-9 -9 -9 -8 -9 -9 -9 -8 -8 -8 -8 -8 -8 -8 -9 -9 -9 -9 -9 -9 -9 -9 -9 -9 -9 -9 -9 -9 -10 -9 -9 -8 -8 -8 -7 -7 -8 -7
Wind_Speed
10 10 7 6 6 5 4 5 7 6 6 3 2 3 7 9 12 10 8 9 9 11 12 13 14 15 16 17 17 18 19 19 19 19 20 20 20 20
5 7 6 3 4 3 4 4 4 6 5 3 2 2 5 7 10 7 6 9 12 13 14 15 16 17 18 18 19 19 20 20 20 20 20 20 20 20
2 3 3 3 4 3 3 3 3 4 5 3 2 2 4 5 5 5 6 8 10 13 16 17 18 18 19 20 20 20 21 21 21 21 21 21 21 21
3 4 4 5 6 5 4 4 4 3 4 5 3 3 4 4 4 4 6 8 9 13 16 18 18 19 20 20 21 21 21 21 21 21 21 22 22 22
5 5 6 7 6 6 6 5 4 4 3 5 4 2 2 3 4 4 6 7 10 12 15 16 17 18 19 20 20 21 21 21 21 22 22 23 23 24
8 7 6 6 7 7 6 6 5 5 5 5 3 2 2 3 3 4 4 4 5 8 11 14 17 18 18 19 19 20 20 21 22 22 22 23 23 24
9 8 7 8 9 6 5 5 5 4 4 3 2 2 3 3 4 3 4 3 4 4 4 7 10 10 14 18 20 21 21 21 21 21 22 22 23 24
9 9 8 8 8 9 8 7 5 4 3 2 2 3 3 3 2 2 1 1 3 2 2 6 6 7 11 15 19 21 21 21 21 22 22 23 24 25
8 7 7 8 9 6 6 5 3 1 2 2 2 2 1 1 1 0 2 3 5 4 5 8 6 9 11 17 21 22 22 22 22 22 22 23 23 24
8 7 6 5 4 4 2 2 1 1 1 1 1 1 1 1 2 3 4 4 5 5 4 6 6 7 9 13 20 22 22 21 21 21 21 22 22 23
5 5 4 2 3 3 2 1 2 3 4 3 5 6 9 10 8 3 3 4 5 5 3 4 4 5 6 8 13 16 16 18 21 22 23 23 23 23
2 1 3 3 4 4 3 2 2 2 4 5 5 7 7 8 10 5 5 4 4 4 2 2 3 4 5 4 4 8 13 18 22 23 23 23 23 17
2 2 1 4 5 6 5 3 4 4 3 4 5 5 4 4 4 4 4 5 5 6 4 2 3 3 4 6 6 5 6 8 12 16 21 23 24 19
3 2 3 5 6 7 5 6 8 7 3 3 3 4 3 3 2 2 4 6 8 9 9 6 5 6 8 10 9 7 6 7 8 10 11 19 19 20
2 5 6 7 7 6 7 8 6 3 3 3 3 3 3 3 3 4 5 8 11 13 16 15 11 11 11 11 10 11 10 9 8 8 7 7 8 9
4 6 8 8 6 6 6 4 3 3 3 3 4 4 4 4 4 4 5 5 7 8 9 15 15 13 13 13 14 15 12 8 8 8 10 12 11 11
5 4 4 3 3 3 3 3 3 3 3 3 3 4 5 5 5 4 4 5 7 10 10 6 9 12 13 13 14 15 14 14 13 11 11 14 12 11
6 4 4 4 3 3 4 4 4 4 4 3 4 5 6 7 8 7 7 8 9 10 11 9 7 9 8 10 17 17 15 14 12 11 12 14 16 10
4 4 4 4 4 4 4 4 4 5 4 4 5 6 7 8 8 9 8 9 10 10 10 9 8 9 12 14 8 14 13 11 11 12 12 13 16 14
3 4 4 5 5 5 5 5 5 5 5 6 6 7 7 8 9 9 9 10 11 11 11 10 9 10 12 14 14 12 15 14 14 15 14 13 15 19
4 5 5 5 5 5 5 6 6 6 7 7 7 8 8 8 10 10 10 15 14 12 13 12 11 15 12 11 13 13 11 16 19 15 14 15 17 16
5 5 5 6 6 6 6 6 7 7 8 8 8 8 8 9 11 12 11 12 11 12 14 13 11 11 11 14 17 18 18 14 16 25 27 24 17 13
5 6 6 6 6 6 6 7 9 8 8 8 9 9 9 10 10 11 12 12 12 13 14 14 13 11 13 14 16 17 20 19 15 14 14 20 26 30
Wind_Direction
218 214 211 204 196 189 178 178 177 186 203 180 152 120 133 138 164 173 187 213 238 255 265 277 283 284 285 285 285 285 284 283 281 280 279 278 278 278
216 209 206 180 169 170 170 166 170 178 182 169 158 133 139 157 174 183 209 236 250 261 271 277 280 281 282 283 283 282 281 280 278 278 278 278 278 278
170 181 171 140 138 131 134 145 150 151 159 142 125 140 162 170 183 209 235 246 256 265 273 277 280 282 282 282 282 281 280 279 278 278 278 278 278 279
116 117 120 117 115 115 119 121 128 125 142 149 150 162 182 187 192 221 243 251 256 266 272 277 280 282 283 282 281 280 279 278 277 276 276 277 278 278
99 116 123 125 121 118 117 118 116 104 100 136 143 149 171 188 197 225 240 251 258 266 275 282 285 286 285 283 282 280 279 278 277 276 276 276 276 277
75 87 101 119 125 122 119 121 117 105 103 116 121 149 175 177 189 219 241 237 252 267 278 284 286 289 289 289 288 286 283 280 277 276 275 275 274 274
72 75 85 102 116 114 121 119 115 113 120 122 145 167 183 188 203 207 228 247 266 264 270 278 286 286 286 287 288 286 283 281 278 277 276 275 274 274
76 69 71 72 87 94 109 117 124 132 140 152 175 190 200 206 196 190 198 291 292 289 303 288 283 280 279 277 281 284 284 284 282 281 279 278 277 275
69 67 64 59 59 55 69 74 68 94 176 175 190 214 228 185 141 194 248 248 252 263 291 286 272 275 276 280 286 290 291 291 290 287 284 282 279 278
63 62 64 56 55 52 50 53 0 298 258 224 198 252 270 229 198 215 235 260 265 264 261 276 279 275 283 281 287 291 293 294 294 293 291 288 284 282
66 62 59 51 43 30 23 333 297 290 274 260 265 275 279 279 270 253 259 278 288 283 250 257 283 296 287 281 287 295 298 301 302 300 297 294 291 287
71 71 58 36 11 5 7 350 334 351 8 351 320 301 288 280 277 245 207 223 255 285 276 284 297 332 310 284 274 289 293 296 298 299 298 298 297 296
33 41 53 15 355 347 348 347 318 327 327 304 293 288 285 274 268 254 213 200 219 244 255 288 279 266 263 292 291 271 272 284 293 295 296 296 295 292
21 32 7 346 335 328 324 313 316 321 312 296 294 295 297 295 289 287 281 268 251 253 264 259 263 268 278 285 287 290 287 279 281 286 286 291 291 289
355 342 332 327 325 324 318 318 325 322 305 301 300 292 281 272 273 277 275 269 263 262 263 256 254 263 264 269 274 284 296 293 276 272 277 276 276 278
356 333 322 310 305 298 303 310 294 262 276 270 283 286 290 289 282 272 272 276 278 276 260 257 250 248 258 261 268 277 277 276 281 276 277 279 273 266
331 325 314 310 316 318 314 307 305 305 306 285 286 297 301 298 293 294 283 282 277 284 287 271 256 250 249 259 268 269 272 272 271 275 279 282 275 263
331 321 314 321 326 326 323 318 315 313 304 296 295 293 295 295 295 293 286 282 280 281 283 287 284 282 271 256 242 257 263 267 270 268 267 278 283 272
313 302 304 306 300 296 293 290 289 287 285 281 277 278 282 285 287 287 285 282 279 279 280 281 279 280 284 288 261 229 245 265 273 275 272 272 277 280
289 283 283 285 285 284 282 282 282 284 281 278 276 276 278 280 280 279 278 277 279 281 282 276 267 264 267 278 284 274 254 261 271 275 277 274 273 277
290 285 278 277 276 274 274 274 275 276 275 273 272 271 272 272 274 273 274 277 279 280 279 279 272 275 277 279 279 276 266 253 253 261 272 280 284 285
278 277 275 274 272 270 271 272 274 274 274 271 271 271 270 270 272 274 274 276 276 275 277 280 280 279 273 273 275 282 286 280 265 263 262 262 270 276
272 272 271 272 270 269 268 269 271 274 272 271 272 273 272 273 272 272 272 273 275 277 280 283 283 278 273 271 275 279 281 285 285 280 272 263 260 261
Height
1477 1478 1479 1480 1481 1483 1484 1486 1488 1487 1487 1488 1489 1491 1493 1496 1498 1500 1502 1503 1505 1506 1505 1504 1503 1503 1501 1500 1499 1498 1497 1496 1495 1494 1494 1493 1493 1493
1470 1471 1472 1473 1474 1475 1476 1477 1478 1479 1480 1481 1482 1484 1487 1489 1491 1494 1495 1496 1497 1498 1497 1496 1495 1494 1493 1492 1491 1489 1488 1488 1487 1487 1486 1486 1486 1486
1463 1464 1465 1466 1466 1467 1468 1469 1470 1472 1473 1474 1477 1479 1481 1483 1485 1487 1488 1489 1489 1489 1489 1488 1486 1486 1485 1484 1482 1481 1480 1480 1479 1479 1478 1478 1478 1478
1457 1458 1459 1459 1459 1460 1461 1462 1463 1465 1468 1469 1471 1474 1476 1478 1479 1480 1481 1481 1482 1482 1481 1479 1478 1477 1476 1475 1474 1473 1472 1472 1471 1471 1471 1471 1470 1470
1452 1453 1453 1454 1454 1454 1455 1457 1458 1460 1463 1465 1467 1469 1471 1473 1473 1474 1474 1474 1474 1474 1473 1472 1471 1469 1469 1468 1467 1466 1465 1464 1464 1463 1463 1462 1462 1462
1448 1448 1449 1449 1450 1451 1452 1455 1456 1458 1460 1462 1463 1464 1466 1466 1467 1468 1467 1468 1468 1467 1466 1464 1463 1463 1462 1461 1460 1459 1458 1457 1456 1455 1455 1454 1454 1453
1445 1445 1446 1447 1448 1450 1452 1454 1455 1456 1457 1458 1459 1460 1461 1461 1461 1461 1461 1461 1461 1460 1459 1458 1457 1456 1455 1454 1453 1452 1451 1450 1449 1448 1447 1446 1445 1444
1445 1446 1447 1448 1449 1450 1452 1452 1453 1454 1454 1455 1455 1456 1456 1456 1456 1456 1456 1456 1455 1455 1453 1452 1451 1449 1449 1447 1446 1445 1444 1443 1442 1441 1440 1438 1437 1436
1446 1448 1449 1449 1450 1450 1450 1451 1451 1451 1451 1452 1452 1452 1452 1452 1452 1452 1452 1451 1450 1449 1447 1444 1445 1443 1442 1441 1440 1439 1437 1436 1435 1434 1432 1431 1429 1427
1448 1449 1449 1449 1449 1449 1449 1448 1448 1448 1448 1448 1448 1448 1448 1448 1447 1447 1447 1446 1445 1444 1443 1439 1438 1437 1435 1435 1434 1432 1431 1430 1429 1427 1425 1423 1421 1419
1449 1449 1449 1448 1448 1447 1447 1446 1446 1445 1445 1444 1444 1444 1444 1443 1443 1443 1442 1442 1440 1439 1439 1436 1433 1430 1428 1428 1428 1426 1425 1423 1421 1419 1416 1414 1412 1410
1449 1448 1448 1447 1446 1445 1444 1444 1443 1442 1442 1441 1441 1440 1440 1440 1440 1440 1439 1438 1437 1435 1433 1433 1430 1427 1422 1420 1420 1419 1417 1415 1413 1410 1407 1405 1402 1400
1448 1447 1446 1445 1444 1443 1442 1441 1440 1440 1438 1438 1437 1437 1437 1436 1436 1436 1436 1435 1433 1431 1431 1429 1426 1424 1421 1414 1410 1411 1409 1406 1403 1401 1398 1395 1393 1391
1447 1446 1445 1444 1442 1441 1440 1439 1438 1437 1436 1435 1435 1434 1434 1434 1433 1433 1432 1430 1429 1427 1426 1425 1422 1419 1415 1410 1404 1402 1401 1399 1395 1392 1389 1387 1385 1383
1446 1444 1443 1441 1440 1439 1438 1436 1435 1434 1433 1433 1432 1432 1431 1430 1429 1428 1427 1425 1423 1422 1421 1419 1417 1414 1410 1405 1399 1395 1392 1389 1388 1385 1382 1378 1375 1373
1444 1442 1441 1439 1438 1436 1435 1434 1433 1432 1431 1430 1429 1429 1428 1426 1425 1423 1421 1419 1416 1414 1415 1413 1410 1407 1403 1399 1395 1389 1386 1382 1379 1377 1373 1369 1366 1364
1441 1440 1438 1437 1436 1434 1433 1432 1431 1430 1428 1427 1426 1425 1423 1422 1420 1418 1416 1413 1410 1407 1405 1405 1403 1399 1396 1392 1387 1382 1378 1375 1372 1369 1364 1359 1356 1355
1439 1438 1436 1435 1433 1432 1430 1429 1428 1427 1425 1424 1422 1421 1419 1416 1414 1412 1410 1407 1404 1401 1398 1396 1394 1390 1386 1382 1380 1374 1371 1367 1364 1361 1357 1352 1345 1344
1437 1435 1434 1432 1431 1429 1428 1426 1425 1423 1422 1420 1418 1416 1414 1412 1409 1406 1404 1401 1397 1394 1391 1389 1386 1383 1379 1372 1368 1367 1363 1358 1355 1352 1349 1345 1338 1333
1434 1433 1431 1429 1428 1426 1424 1423 1421 1419 1418 1416 1414 1412 1409 1406 1403 1401 1398 1395 1391 1387 1383 1381 1379 1376 1372 1366 1359 1354 1356 1352 1347 1343 1339 1335 1329 1325
1431 1430 1428 1426 1424 1422 1420 1419 1417 1415 1413 1411 1408 1406 1404 1401 1397 1394 1391 1388 1384 1380 1375 1372 1371 1369 1364 1359 1351 1342 1342 1342 1339 1335 1330 1326 1320 1315
1428 1426 1424 1422 1420 1418 1416 1414 1412 1410 1407 1405 1402 1400 1397 1394 1391 1387 1384 1380 1376 1372 1367 1363 1361 1358 1354 1349 1342 1335 1329 1328 1327 1325 1322 1319 1315 1306
1424 1422 1420 1418 1416 1414 1411 1409 1406 1404 1402 1399 1396 1393 1390 1387 1383 1380 1376 1373 1368 1364 1359 1355 1351 1348 1344 1340 1334 1327 1321 1317 1314 1310 1307 1306 1303 1298